Location: Unspecified
(0.0000°N, 0.0000°E)
Time: 01:25:50
(UTC+00:00)

Vanguard 1 - Pass Details

Date: 17 December 2017
Orbit: 650 x 3833 km, 34.3° (Epoch: 23 June)

Event Time Altitude Azimuth Distance (km) Brightness Sun altitude
Rises 00:20:22 0° 198° (SSW) 4,663 13.8 -65.9°
Reaches altitude 10° 00:27:16 10° 165° (SSE) 4,500 13.7 -65.4°
Maximum altitude 00:30:32 11° 149° (SSE) 4,767 13.8 -65.2°
Drops below altitude 10° 00:34:15 10° 134° (SE) 5,253 14.0 -64.9°
Sets 00:45:27 0° 105° (ESE) 7,227 14.7 -63.7°
